Вернуться в каталог

SHIJIAN 6 05B

SJ-6 05B

АктивенНаукаSSO
NORAD 49962·PAYLOAD·🇨🇳 China

Запущен Dec 10, 2021 с Jiuquan Satellite Launch Center

Loading…

Ближайшие Пролёты (ближайшие 24 часа)

TLE

СвежийSource: Space-Track

Эпоха: Sep 14, 2026, 17:04 UTC

1 49962U 21122B   26257.71159126  .00002195  00000-0  13026-3 0  9994
2 49962  97.3897 235.3932 0003173  89.1072 271.0523 15.12346886263277

Отслеживайте SHIJIAN 6 05B в реальном времени с AllMySat

Download on the App Store